星链-5393 (STARLINK-5393 )

导读 | 豆包AI

STARLINK-5393是美国太空探索技术公司SpaceX星链星座的一颗卫星,于2022年12月28日发射升空,属于星链互联网卫星项目的组网卫星,依托星链星座架构,为全球提供低延迟、高速率的卫星互联网接入服务,目前该卫星在轨运行,支撑起星链全球网络覆盖能力。

基本信息
目录编号:
54832
目录名称:
STARLINK-5393
国际标识:
2022-177N
轨道中心:
EARTH
卫星名称:
星链-5393
卫星全名:
星链-5393 (STARLINK-5393 )
卫星状态:
已陨落 最后检测时间 2025-10-19
发射日期:
2022-12-28 UTC
国别 :
美国 (US)
星等 :
--
轨道信息
数据来源 国际轨道数据
星历时间: 2025-10-19T07:13:28+0800
轨道信息已过期193天
半长轴: 6546.112km
偏心率: 0.0006084
轨道倾角: 42.984°
近地点辐角 292.928°
升交点赤经 131.487°
平近点角 67.097°
近地点: 163.994km
远地点: 171.96km
周期: 87.849分钟
每日圈数: 16.391839
详细信息
固有亮度:
5
最大亮度:
2.5
卫星平台:
Starlink v1.5
覆盖范围:
全球
运营商:
太空探索技术公司
运营商所在国:
美国
制造商(研发单位):
太空探索技术公司
制造商所在国:
美国
使用方式:
暂无
卫星简介
星链(Starlink)计划是由太空探索技术公司(SpaceX)提出的一个巨型低轨卫星互联网星座项目,计划在2019年至2024年间在太空搭建由约1.2万颗卫星组成的“星链”网络,其中1584颗将部署在地球上空550千米处的近地轨道,并从2020年开始工作。该卫星仍在工作。